Valentine, NE

9:46 AM CST on December 09, 2019 (GMT -0600)
Miller Field

Weather History for KVTN - October, 2019

Change the Weather History Date:

Monday, October 21, 2019

  Actual Average Record
Temperature  
Mean Temperature 41 °F 46 °F  
Max Temperature 48 °F 61 °F 90 °F (1947)
Min Temperature 33 °F 32 °F 12 °F (1987)
Degree Days  
Heating Degree Days 24 19  
Month to date heating degree days 393 310  
Since 1 July heating degree days 446 495  
Cooling Degree Days 0 0  
Month to date cooling degree days 0 1  
Year to date cooling degree days 930 818  
Moisture  
Dew Point 32 °F    
Average Humidity 83    
Maximum Humidity 93    
Minimum Humidity 42    
Precipitation  
Precipitation 0.45 in 0.04 in 0.44 in (1979)
Month to date precipitation 1.12 0.93  
Year to date precipitation 28.02 18.68  
Snow  
Snow T in 0.00 in 1.10 in (1981)
Month to date snowfall 1.9 0.7  
Since 1 July snowfall 1.9 1.4  
Since 1 September snowfall 1.9 1.4  
Snow Depth T in    
Sea Level Pressure  
Sea Level Pressure 29.65 in    
Wind  
Wind Speed 20 mph ()    
Max Wind Speed 39 mph    
Max Gust Speed 56 mph    
Visibility 5.2 miles    
Events Rain , Snow    
T = Trace of Precipitation, MM = Missing Value Source: Averaged Metar Reports

Daily Weather History Graph

Daily Weather History Graph

Search for Another Location

Airport or City:

Astronomy

Oct. 21, 2019 Rise Set
Actual Time 8:02 AM CDT 6:50 PM CDT
Civil Twilight 7:33 AM CDT 7:19 PM CDT
Nautical Twilight 7:00 AM CDT 7:52 PM CDT
Astronomical Twilight 6:27 AM CDT 8:24 PM CDT
Moon No Moon Rise 3:27 PM CDT (10/21)
Length of Visible Light 11h 45m
Length of Day
10h 47m
Waning Gibbous, 48% of the Moon is Illuminated
Oct 21
Waning Gibbous
Oct 27
New
Nov 4
First Quarter
Nov 12
Full
Nov 19
Last Quarter

Hourly Weather History & Observations

Time (CDT) Temp. Windchill Dew Point Humidity Pressure Visibility Wind Dir Wind Speed Gust Speed Precip Events Conditions
12:40 AM 36.0 °F 24.7 °F 32.0 °F 86% 29.52 in 9.0 mi WNW 21.9 mph 34.5 mph 0.00 in Snow Light Snow
12:52 AM 36.0 °F 24.4 °F 32.0 °F 86% 29.53 in 6.0 mi WNW 23.0 mph 34.5 mph 0.00 in Snow Light Snow
1:10 AM 35.1 °F 23.0 °F 30.9 °F 85% 29.52 in 1.8 mi WNW 24.2 mph 38.0 mph 0.00 in Snow Light Snow
1:18 AM 35.6 °F 24.2 °F 30.2 °F 81% 29.52 in 1.0 mi WNW 21.9 mph 38.0 mph N/A Snow Light Snow
1:30 AM 35.1 °F 23.5 °F 30.9 °F 85% 29.52 in 0.8 mi WNW 21.9 mph 33.4 mph 0.04 in Snow Light Snow
1:39 AM 35.1 °F 24.1 °F 30.9 °F 85% 29.52 in 1.0 mi WNW 19.6 mph 31.1 mph 0.05 in Snow Light Snow
1:52 AM 35.1 °F 23.3 °F 30.9 °F 85% 29.53 in 1.0 mi WNW 23.0 mph 29.9 mph 0.07 in Snow Light Snow
2:07 AM 35.1 °F 24.8 °F 30.9 °F 85% 29.52 in 1.2 mi WNW 17.3 mph 25.3 mph 0.02 in Snow Light Snow
2:32 AM 35.1 °F 24.8 °F 30.9 °F 85% 29.52 in 1.8 mi WNW 17.3 mph 31.1 mph 0.04 in Snow Light Snow
2:40 AM 35.1 °F 23.8 °F 30.9 °F 85% 29.51 in 2.0 mi WNW 20.7 mph 31.1 mph 0.04 in Snow Light Snow
2:52 AM 35.1 °F 23.5 °F 30.9 °F 85% 29.54 in 1.8 mi WNW 21.9 mph 33.4 mph 0.05 in Snow Light Snow
3:02 AM 35.1 °F 23.8 °F 30.9 °F 85% 29.52 in 2.5 mi NW 20.7 mph 33.4 mph 0.01 in Snow Light Snow
3:05 AM 35.1 °F 23.5 °F 30.9 °F 85% 29.52 in 3.0 mi NW 21.9 mph 34.5 mph 0.01 in Snow Light Snow
3:19 AM 35.1 °F 24.5 °F 30.9 °F 85% 29.52 in 2.0 mi NW 18.4 mph 32.2 mph 0.02 in Snow Light Snow
3:52 AM 35.1 °F 23.5 °F 30.9 °F 85% 29.54 in 2.0 mi NW 21.9 mph 38.0 mph 0.03 in Snow Light Snow
4:25 AM 36.0 °F 24.4 °F 32.0 °F 86% 29.52 in 4.0 mi NW 23.0 mph 39.1 mph 0.03 in Snow Light Snow
4:42 AM 36.0 °F 24.4 °F 32.0 °F 86% 29.53 in 2.5 mi WNW 23.0 mph 38.0 mph 0.05 in Snow Light Snow
4:49 AM 35.6 °F 23.7 °F 32.0 °F 87% 29.53 in 4.0 mi NW 24.2 mph 41.4 mph 0.05 in Snow Light Snow
4:52 AM 36.0 °F 24.2 °F 32.0 °F 86% 29.55 in 3.0 mi NW 24.2 mph 41.4 mph 0.05 in Snow Light Snow
5:12 AM 36.0 °F 23.5 °F 32.0 °F 86% 29.53 in 3.0 mi NW 27.6 mph 41.4 mph 0.02 in Snow Light Snow
5:20 AM 36.0 °F 24.2 °F 32.0 °F 86% 29.53 in 2.0 mi NW 24.2 mph 41.4 mph 0.02 in Snow Light Snow
5:30 AM 36.0 °F 24.4 °F 33.1 °F 89% 29.54 in 3.0 mi NW 23.0 mph 38.0 mph 0.04 in Snow Light Snow
5:41 AM 35.1 °F 22.5 °F 32.0 °F 89% 29.54 in 1.8 mi NW 26.5 mph 42.6 mph 0.07 in Snow Light Snow
5:52 AM 35.1 °F 23.0 °F 32.0 °F 89% 29.57 in 1.8 mi NW 24.2 mph 36.8 mph 0.08 in Snow Light Snow
6:01 AM 36.0 °F 23.2 °F 33.1 °F 89% 29.55 in 2.5 mi NW 28.8 mph 42.6 mph 0.01 in Snow Light Snow
6:15 AM 36.0 °F 23.2 °F 33.1 °F 89% 29.55 in 3.0 mi NW 28.8 mph 43.7 mph 0.02 in Snow Light Snow
6:28 AM 36.0 °F 23.9 °F 34.0 °F 93% 29.55 in 8.0 mi NW 25.3 mph 47.2 mph 0.02 in Snow Light Snow
6:52 AM 36.0 °F 22.6 °F 34.0 °F 93% 29.61 in 7.0 mi NNW 32.2 mph 46.0 mph 0.02 in Snow Light Snow
7:52 AM 37.0 °F 25.6 °F 34.0 °F 89% 29.63 in 10.0 mi NW 24.2 mph 41.4 mph 0.00 in   Overcast
8:52 AM 36.0 °F 24.4 °F 34.0 °F 93% 29.66 in 3.0 mi NW 23.0 mph 36.8 mph 0.01 in Snow Light Snow
9:04 AM 36.0 °F 25.6 °F 34.0 °F 93% 29.63 in 5.0 mi NW 18.4 mph 31.1 mph 0.01 in Snow Light Snow
9:37 AM 37.0 °F 27.7 °F 35.1 °F 93% 29.64 in 5.0 mi NW 16.1 mph 34.5 mph 0.02 in Snow Light Snow
9:45 AM 37.0 °F 26.7 °F 35.1 °F 93% 29.64 in 5.0 mi NW 19.6 mph 28.8 mph 0.03 in Snow Light Snow
9:52 AM 37.0 °F 26.4 °F 35.1 °F 93% 29.67 in 5.0 mi NW 20.7 mph 32.2 mph 0.03 in Rain Light Rain
10:01 AM 37.0 °F 25.9 °F 35.1 °F 93% 29.64 in 6.0 mi NW 23.0 mph 35.7 mph 0.01 in Rain Light Rain
10:39 AM 37.9 °F 27.1 °F 35.1 °F 89% 29.65 in 6.0 mi NW 23.0 mph 38.0 mph 0.03 in Rain Light Rain
10:52 AM 37.9 °F 27.3 °F 35.1 °F 89% 29.69 in 6.0 mi NW 21.9 mph 36.8 mph 0.03 in Rain Light Rain
11:07 AM 37.9 °F 26.3 °F 35.1 °F 89% 29.66 in 5.0 mi NW 26.5 mph 38.0 mph 0.01 in Rain Light Rain
11:15 AM 37.9 °F 26.8 °F 36.0 °F 93% 29.66 in 4.0 mi NW 24.2 mph 41.4 mph 0.01 in Rain Light Rain
11:52 AM 39.0 °F 27.8 °F 36.0 °F 89% 29.74 in 5.0 mi NNW 26.5 mph 38.0 mph 0.03 in Rain Light Rain
12:52 PM 39.0 °F 27.8 °F 36.0 °F 89% 29.77 in 5.0 mi NW 26.5 mph 41.4 mph 0.02 in Rain Light Rain
1:40 PM 39.9 °F 28.4 °F 37.0 °F 89% 29.73 in 9.0 mi NW 29.9 mph 47.2 mph 0.01 in Rain Light Rain
1:52 PM 39.9 °F 28.6 °F 37.0 °F 89% 29.78 in 8.0 mi NW 28.8 mph 49.5 mph 0.01 in Rain Light Rain
2:01 PM 41.0 °F 30.2 °F 37.0 °F 86% 29.74 in 9.0 mi NW 27.6 mph 55.2 mph 0.01 in Rain Light Rain
2:52 PM 41.0 °F 29.5 °F 37.0 °F 86% 29.82 in 10.0 mi NNW 32.2 mph 51.8 mph 0.01 in Rain Light Rain
3:52 PM 46.0 °F 38.0 °F 30.0 °F 54% 29.83 in 10.0 mi NW 21.9 mph 41.4 mph 0.01 in   Overcast
4:52 PM 46.0 °F 39.0 °F 30.0 °F 54% 29.86 in 10.0 mi NW 17.3 mph 31.1 mph N/A   Scattered Clouds
5:52 PM 48.0 °F - 27.0 °F 44% 29.88 in 10.0 mi NW 21.9 mph 33.4 mph N/A   Clear
6:52 PM 45.0 °F 37.4 °F 27.0 °F 49% 29.91 in 10.0 mi NW 18.4 mph 32.2 mph N/A   Clear
7:52 PM 43.0 °F 35.7 °F 27.0 °F 53% 29.94 in 10.0 mi NW 15.0 mph - N/A   Clear
8:52 PM 39.9 °F 33.9 °F 27.0 °F 60% 29.96 in 10.0 mi WNW 9.2 mph - N/A   Clear
9:52 PM 34.0 °F 26.6 °F 26.1 °F 73% 29.99 in 10.0 mi West 9.2 mph - N/A   Clear
10:52 PM 35.1 °F 27.9 °F 27.0 °F 72% 29.99 in 10.0 mi WNW 9.2 mph - N/A   Clear
11:52 PM 35.1 °F 27.9 °F 27.0 °F 72% 30.00 in 10.0 mi WNW 9.2 mph - N/A   Clear